Weather History for KTTA - October, 2012

Change the Weather History Date:

Monday, October 15, 2012

  Actual Average (KRDU) Record (KRDU)
Temperature  
Mean Temperature 66 °F 61 °F  
Max Temperature 73 °F 73 °F 88 °F (1985)
Min Temperature 57 °F 50 °F 33 °F (2006)
Degree Days  
Heating Degree Days 0 5  
Month to date heating degree days 54  
Since 1 July heating degree days 75  
Cooling Degree Days 1 1  
Month to date cooling degree days 37  
Year to date cooling degree days 1705  
Growing Degree Days 16 (Base 50)    
Moisture  
Dew Point 60 °F    
Average Humidity 84    
Maximum Humidity 100    
Minimum Humidity 63    
Precipitation  
Precipitation 0.14 in 0.10 in 4.04 in (1954)
Month to date precipitation 1.63  
Year to date precipitation 35.53  
Sea Level Pressure  
Sea Level Pressure 29.87 in    
Wind  
Wind Speed 3 mph (WSW)    
Max Wind Speed 9 mph    
Max Gust Speed -    
Visibility 10 miles    
Events Rain    
T = Trace of Precipitation, MM = Missing Value Source: NWS Daily Summary

Daily Weather History Graph

Daily Weather History Graph

Search for Another Location

Airport or City:

Trip Planner

Search our weather history database for the weather conditions in past years. The results will help you decide how hot, cold, wet, or windy it might be!

Date:

Astronomy

Oct. 15, 2012 Rise Set
Actual Time 7:23 AM EDT 6:40 PM EDT
Civil Twilight 6:57 AM EDT 7:06 PM EDT
Nautical Twilight 6:27 AM EDT 7:35 PM EDT
Astronomical Twilight 5:58 AM EDT 8:05 PM EDT
Moon 7:29 AM EDT (10/15) 6:41 PM EDT (10/15)
Length of Visible Light 12h 08m
Length of Day
11h 17m
New Moon, 0% of the Moon is Illuminated
Oct 15
New Moon
Oct 21
First Quarter
Oct 29
Full
Nov 6
Last Quarter
Nov 13
New

Hourly Weather History & Observations

Time (EDT) Temp. Dew Point Humidity Pressure Visibility Wind Dir Wind Speed Gust Speed Precip Events Conditions
12:15 AM 62.6 °F 59.0 °F 88% 30.03 in 10.0 mi South 5.8 mph - N/A   Clear
12:35 AM 60.8 °F 57.2 °F 88% 30.04 in 10.0 mi South 3.5 mph - N/A   Clear
12:55 AM 62.6 °F 57.2 °F 82% 30.03 in 10.0 mi Calm Calm - N/A   Scattered Clouds
1:15 AM 62.6 °F 57.2 °F 82% 30.03 in 10.0 mi Calm Calm - N/A   Mostly Cloudy
1:35 AM 60.8 °F 57.2 °F 88% 30.03 in 10.0 mi Calm Calm - N/A   Overcast
1:55 AM 60.8 °F 59.0 °F 94% 30.02 in 10.0 mi Calm Calm - N/A   Overcast
2:15 AM 62.6 °F 59.0 °F 88% 30.01 in 10.0 mi South 3.5 mph - N/A   Mostly Cloudy
2:35 AM 62.6 °F 59.0 °F 88% 30.00 in 10.0 mi Calm Calm - N/A   Mostly Cloudy
2:55 AM 62.6 °F 59.0 °F 88% 29.99 in 10.0 mi South 4.6 mph - N/A   Mostly Cloudy
3:15 AM 62.6 °F 59.0 °F 88% 29.98 in 10.0 mi SSW 3.5 mph - N/A   Mostly Cloudy
3:35 AM 62.6 °F 59.0 °F 88% 29.97 in 10.0 mi South 3.5 mph - N/A   Mostly Cloudy
3:55 AM 62.6 °F 59.0 °F 88% 29.96 in 10.0 mi Calm Calm - N/A   Scattered Clouds
4:15 AM 62.6 °F 59.0 °F 88% 29.96 in 10.0 mi Calm Calm - N/A   Clear
4:35 AM 59.0 °F 57.2 °F 94% 29.95 in 10.0 mi Calm Calm - N/A   Scattered Clouds
4:55 AM 59.0 °F 57.2 °F 94% 29.95 in 10.0 mi Calm Calm - N/A   Mostly Cloudy
5:15 AM 59.0 °F 57.2 °F 94% 29.95 in 10.0 mi Calm Calm - N/A   Overcast
5:35 AM 59.0 °F 59.0 °F 100% 29.94 in 10.0 mi Calm Calm - N/A   Overcast
5:55 AM 59.0 °F 59.0 °F 100% 29.94 in 10.0 mi Calm Calm - N/A   Scattered Clouds
6:15 AM 59.0 °F 55.4 °F 88% 29.93 in 10.0 mi Calm Calm - N/A   Scattered Clouds
6:35 AM 59.0 °F 55.4 °F 88% 29.92 in 10.0 mi Calm Calm - N/A   Scattered Clouds
6:55 AM 59.0 °F 57.2 °F 94% 29.92 in 10.0 mi Calm Calm - N/A   Clear
7:15 AM 59.0 °F 57.2 °F 94% 29.92 in 10.0 mi Calm Calm - N/A   Clear
7:35 AM 59.0 °F 57.2 °F 94% 29.92 in 10.0 mi Calm Calm - N/A   Clear
7:55 AM 59.0 °F 59.0 °F 100% 29.92 in 10.0 mi Calm Calm - N/A   Clear
8:15 AM 59.0 °F 59.0 °F 100% 29.93 in 10.0 mi Calm Calm - N/A   Scattered Clouds
8:35 AM 60.8 °F 59.0 °F 94% 29.93 in 10.0 mi Calm Calm - N/A   Mostly Cloudy
8:55 AM 62.6 °F 60.8 °F 94% 29.93 in 10.0 mi Calm Calm - N/A Rain Light Rain
9:15 AM 62.6 °F 60.8 °F 94% 29.93 in 10.0 mi Calm Calm - N/A   Overcast
9:35 AM 64.4 °F 62.6 °F 94% 29.93 in 10.0 mi Calm Calm - N/A   Overcast
9:55 AM 64.4 °F 62.6 °F 94% 29.92 in 10.0 mi SSW 3.5 mph - N/A   Overcast
10:15 AM 66.2 °F 62.6 °F 88% 29.92 in 10.0 mi SSW 3.5 mph - N/A   Overcast
10:35 AM 68.0 °F 62.6 °F 83% 29.91 in 10.0 mi SSW 3.5 mph - N/A   Overcast
10:55 AM 68.0 °F 62.6 °F 83% 29.89 in 10.0 mi South 3.5 mph - N/A   Mostly Cloudy
11:15 AM 69.8 °F 64.4 °F 83% 29.89 in 10.0 mi SW 3.5 mph - N/A   Mostly Cloudy
11:35 AM 69.8 °F 64.4 °F 83% 29.88 in 10.0 mi SW 5.8 mph - N/A   Mostly Cloudy
11:55 AM 71.6 °F 62.6 °F 73% 29.87 in 10.0 mi SSW 9.2 mph - N/A   Overcast
12:15 PM 71.6 °F 62.6 °F 73% 29.87 in 10.0 mi WSW 8.1 mph - N/A   Overcast
12:35 PM 69.8 °F 62.6 °F 78% 29.86 in 10.0 mi SW 6.9 mph - N/A Rain Light Rain
12:55 PM 69.8 °F 64.4 °F 83% 29.84 in 10.0 mi Calm Calm - N/A Rain Light Rain
1:15 PM 69.8 °F 64.4 °F 83% 29.83 in 10.0 mi SSW 4.6 mph - N/A   Mostly Cloudy
1:35 PM 71.6 °F 64.4 °F 78% 29.81 in 10.0 mi SW 5.8 mph - N/A   Overcast
2:15 PM 71.6 °F 64.4 °F 78% 29.78 in 10.0 mi SW 4.6 mph - N/A   Overcast
2:35 PM 71.6 °F 66.2 °F 83% 29.78 in 7.0 mi SW 4.6 mph - 0.02 in Rain Light Rain
2:55 PM 71.6 °F 66.2 °F 83% 29.76 in 10.0 mi South 3.5 mph - 0.02 in Rain Light Rain
3:15 PM 69.8 °F 68.0 °F 94% 29.74 in 10.0 mi WSW 3.5 mph - 0.02 in Rain Rain
3:35 PM 69.8 °F 66.2 °F 88% 29.74 in 2.5 mi West 6.9 mph - 0.10 in Rain Heavy Rain
3:55 PM 69.8 °F 68.0 °F 94% 29.74 in 10.0 mi SSW 4.6 mph - 0.11 in   Overcast
4:15 PM 71.6 °F 68.0 °F 88% 29.73 in 10.0 mi SSW 8.1 mph - N/A   Overcast
4:35 PM 71.6 °F 68.0 °F 88% 29.73 in 10.0 mi West 5.8 mph - N/A   Mostly Cloudy
4:55 PM 71.6 °F 66.2 °F 83% 29.73 in 10.0 mi West 3.5 mph - N/A   Scattered Clouds
5:15 PM 71.6 °F 66.2 °F 83% 29.72 in 10.0 mi West 4.6 mph - N/A   Scattered Clouds
5:35 PM 73.4 °F 64.4 °F 73% 29.72 in 10.0 mi Calm Calm - N/A   Clear
5:55 PM 73.4 °F 64.4 °F 73% 29.72 in 10.0 mi SW 3.5 mph - N/A   Clear
6:15 PM 71.6 °F 64.4 °F 78% 29.72 in 10.0 mi Calm Calm - N/A   Clear
6:35 PM 69.8 °F 64.4 °F 83% 29.72 in 10.0 mi Calm Calm - N/A   Scattered Clouds
6:55 PM 68.0 °F 64.4 °F 88% 29.73 in 10.0 mi Calm Calm - N/A   Mostly Cloudy
7:15 PM 66.2 °F 64.4 °F 94% 29.74 in 10.0 mi North 3.5 mph - 0.01 in Rain Rain
7:35 PM 68.0 °F 62.6 °F 83% 29.75 in 10.0 mi West 3.5 mph - 0.01 in   Mostly Cloudy
7:55 PM 66.2 °F 62.6 °F 88% 29.77 in 10.0 mi WNW 4.6 mph - 0.01 in   Mostly Cloudy
8:15 PM 66.2 °F 60.8 °F 83% 29.77 in 10.0 mi West 4.6 mph - N/A   Scattered Clouds
8:35 PM 64.4 °F 55.4 °F 73% 29.78 in 10.0 mi WNW 5.8 mph - N/A   Clear
8:55 PM 64.4 °F 53.6 °F 68% 29.80 in 10.0 mi WNW 5.8 mph - N/A   Clear
9:15 PM 62.6 °F 53.6 °F 72% 29.80 in 10.0 mi WNW 6.9 mph - N/A   Clear
9:35 PM 62.6 °F 50.0 °F 63% 29.81 in 10.0 mi WNW 8.1 mph - N/A   Clear
9:55 PM 62.6 °F 50.0 °F 63% 29.82 in 10.0 mi NW 6.9 mph - N/A   Clear
10:15 PM 60.8 °F 48.2 °F 63% 29.83 in 10.0 mi WNW 6.9 mph - N/A   Clear
10:35 PM 59.0 °F 48.2 °F 67% 29.83 in 10.0 mi NW 5.8 mph - N/A   Clear
10:55 PM 59.0 °F 48.2 °F 67% 29.84 in 10.0 mi WNW 4.6 mph - N/A   Clear
11:15 PM 59.0 °F 46.4 °F 63% 29.85 in 10.0 mi NW 5.8 mph - N/A   Clear
11:35 PM 59.0 °F 46.4 °F 63% 29.85 in 10.0 mi NW 5.8 mph - N/A   Clear
11:55 PM 57.2 °F 46.4 °F 67% 29.86 in 10.0 mi NW 4.6 mph - N/A   Clear